Back to catalog

CZ-6A DEB

AlivePO
NORAD 61409·DEBRIS·🇨🇳 China

Launched Aug 6, 2024 from Taiyuan Satellite Launch Center

Loading…

Next Passes (next 24 hours)

TLE

FreshSource: Space-Track

Epoch: Sep 14, 2026, 10:38 UTC

1 61409U 24140YA  26257.44364370  .00006707  00000-0  72698-3 0  9999
2 61409  89.0245 259.5941 0089674 215.3309 144.1955 14.85135901108221

Track CZ-6A DEB in real time with AllMySat

Download on the App Store